Showing default

MANDRAKE 2 BAKER, 48908

Orbit data source: Space-Track

MANDRAKE 2 BAKER, 48908 is an American payload satellite in SSO that was launched on Wed, 30 Jun 2021 UTC via an FALCON 9 launch vehicle from the Air Force Eastern Test Range (AFETR). Payload-class satellites include a variety of spacecraft equipped with specific instruments for various scientific and technological missions. These include communications satellites like Starlink; space stations such as the ISS; scientific satellites like the Hubble; Earth observation satellites from companies like Planet Labs, Umbra, and HawkEye 360; GPS; miniature CubeSats for education and research; and military/defense satellites.

Loading next visibility...
Identifier
48908, 2021-059AF
Orbit
SSO
Country
Flag of USUS
Related business
Manufacturer
Astro Digital
Mission
Operational Defense Communications
Bus & Motor
CORVUS-XL, Unknown motor
Mass
23 kg wet, 23 kg dry
Launch date (UTC)
2021-06-30 (5 years ago)
Launch vehicle
FALCON 9
Launch site
Air Force Eastern Test Range (AFETR)
Object type
Payload
Rocket body
Debris
Shape & HBR
Box + 1 Pan, 1.5 m
Radar Cross Section
0.375 m², Medium (>0.1 m² and < 1m²)

Expand to show TLE details & history
Last TLE update: 5 hours ago

TLE from 5 hours ago
0 MANDRAKE 2 BAKER
1 48908U 21059AF  26095.25872893  .00032717  00000-0  47105-3 0  9992
2 48908  97.7030 282.0437 0003093 243.0664 117.0274 15.55979516265944
Epoch: 2026-04-05T06:12Z
TLE epoch observation values (Epoch: 2026-04-05T06:12:34.179Z)
Latitude
-0.00002°
Longitude
-4.66544°
Altitude
403.39 km
Speed
7.668 km/s
True Right ascension
18h 48m 10s
True Declination
0° 00' 00"
Sunlit
Object was in daylight at epoch
Visualization orbit readout
Latitude
Unknown
Longitude
Unknown
Altitude
Unknown
Speed
Unknown
Apparent Right ascension
Unknown
Apparent Declination
Unknown
Sunlit
N/A
Visualization observer readout
Local Sidereal Time
17:00:41
Azimuth
Unknown
Elevation
Unknown
Doppler factor
Unknown
Orbital elements
Apogee altitude
398.333 km
Perigee altitude
394.143 km
Semi-major axis
6,774.375 km
Eccentricity
0.00031
Inclination
97.703°
RAAN
282.0437°
Arg. of periapsis
243.0664°
True anomaly
117.05897°
Mean anomaly
117.0274°
Eccentric anomaly
117.04318°
Mean motion
3.8926 °/min
Orbital period
92.48 mins
BSTAR
0.00047105
Loading maneuver chart data...
Computing Atmospheric mass density...

Documentation

Showing up to 5 results
|